Regional Weather Roundup
Issued by NWS Little Rock, AR

Home | Current Version | Previous Version | Graphics & Text | Print | Product List | Glossary On
Versions: 1 2 3 4 5 6 7 8 9 10 11 12 13 14 15 16 17 18 19 20 21 22 23 24 25 26 27 28 29 30 31 32
000
ASUS44 KLZK 220605
RWRLZK

WEATHER ROUNDUP FOR ARKANSAS
NATIONAL WEATHER SERVICE LITTLE ROCK AR
100 AM CDT SAT JUL 22 2017

NOTE: "FAIR" INDICATES FEW OR NO CLOUDS BELOW 12,000 FEET WITH NO
SIGNIFICANT WEATHER AND/OR OBSTRUCTIONS TO VISIBILITY.

ARZ001-003-010-029-220700-
NORTHWEST ARKANSAS

CITY           SKY/WX    TMP DP  RH WIND       PRES   REMARKS
FAYETTEVILLE   CLEAR     74  74 100 CALM      29.99F
6HR MIN TEMP:  74; 6HR MAX TEMP:  89;

FORT SMITH     CLEAR     80  73  79 CALM      29.95S
6HR MIN TEMP:  80; 6HR MAX TEMP:  95;

HARRISON       CLEAR     78  73  84 S5        30.00F
6HR MIN TEMP:  76; 6HR MAX TEMP:  89;

BENTONVILLE    CLEAR     79  70  73 CALM      30.00S
6HR MIN TEMP:  79; 6HR MAX TEMP:  91;

ROGERS         CLEAR     80  72  76 CALM      30.00S
6HR MIN TEMP:  79; 6HR MAX TEMP:  91;

SILOAM SPGS    CLEAR     77  70  78 SW5       29.98S
6HR MIN TEMP:  77; 6HR MAX TEMP:  91;

HIGHFILL       CLEAR     78  72  81 SW5       29.99S
6HR MIN TEMP:  77; 6HR MAX TEMP:  92;

$$

ARZ004-005-016-220700-
NORTH CENTRAL ARKANSAS

CITY           SKY/WX    TMP DP  RH WIND       PRES   REMARKS
BATESVILLE     CLEAR     82  73  74 SW3       29.96F HX  88
6HR MIN TEMP:  82; 6HR MAX TEMP:  93;

FLIPPIN        CLEAR     79  70  73 CALM      29.95F
6HR MIN TEMP:  79; 6HR MAX TEMP:  93;

MTN HOME       CLEAR     79  73  82 S5        29.97F
6HR MIN TEMP:  79; 6HR MAX TEMP:  90;

$$

ARZ040-041-220700-
WEST CENTRAL ARKANSAS

CITY           SKY/WX    TMP DP  RH WIND       PRES   REMARKS
MENA           CLEAR     75  73  94 CALM      30.01S
MOUNT IDA      CLEAR     77  73  87 CALM      29.97S
6HR MIN TEMP:  77; 6HR MAX TEMP:  93;

$$

ARZ009-017-025-026-028-220700-
NORTHEAST ARKANSAS

CITY           SKY/WX    TMP DP  RH WIND       PRES   REMARKS
JONESBORO      CLEAR     85  77  77 SW7       29.95F HX  95
6HR MIN TEMP:  81; 6HR MAX TEMP:  93;

WALNUT RIDGE   CLEAR     81  75  83 S5        29.95F HX  86
6HR MIN TEMP:  81; 6HR MAX TEMP:  93;

BLYTHEVILLE    CLEAR     82  78  88 SW5       29.95F HX  91
6HR MIN TEMP:  82; 6HR MAX TEMP:  93;

$$

ARZ022-023-033-042-044-220700-
CENTRAL ARKANSAS

CITY           SKY/WX    TMP DP  RH WIND       PRES   REMARKS
LITTLE ROCK    CLEAR     82  77  84 SW5       29.96S HX  90
6HR MIN TEMP:  82; 6HR MAX TEMP:  92;

N LITTLE ROCK    N/A     82  76  82 CALM      29.94F HX  89
6HR MIN TEMP:  82; 6HR MAX TEMP:  93;

JACKSONVILLE   PTCLDY    80  77  89 CALM      29.95F HX  87
6HR MIN TEMP:  80; 6HR MAX TEMP:  95;

CONWAY           N/A     82  77  83 CALM      29.94F HX  91
SEARCY         PTCLDY    78  78 100 CALM      29.97F FOG
6HR MIN TEMP:  78; 6HR MAX TEMP:  92;

HOT SPRINGS    CLEAR     83  77  82 CALM      29.98S HX  92
6HR MIN TEMP:  82; 6HR MAX TEMP:  94;

RUSSELLVILLE   CLEAR     78  76  93 SE3       29.95F
6HR MIN TEMP:  78; 6HR MAX TEMP:  93;

CLINTON        FAIR      77  77 100 CALM      29.98S
$$

ARZ036-220700-
EAST ARKANSAS

CITY           SKY/WX    TMP DP  RH WIND       PRES   REMARKS
WEST MEMPHIS   CLEAR     79  77  94 CALM      29.95S
6HR MIN TEMP:  78; 6HR MAX TEMP:  90;

$$

ARZ050-053-066-070-073-220700-
SOUTHWEST ARKANSAS

CITY           SKY/WX    TMP DP  RH WIND       PRES   REMARKS
ARKADELPHIA    FAIR      77  75  93 CALM      29.96S
6HR MIN TEMP:  77; 6HR MAX TEMP:  92;

CAMDEN         CLEAR     77  73  88 CALM      29.95F
TEXARKANA      CLEAR     81  75  82 S7        29.97S HX  87
6HR MIN TEMP:  80; 6HR MAX TEMP:  89;

EL DORADO      CLEAR     77  74  90 CALM      29.96F
6HR MIN TEMP:  76; 6HR MAX TEMP:  94;

DE QUEEN       CLEAR     78  78 100 NE3       29.95R
6HR MIN TEMP:  78; 6HR MAX TEMP:  94;

$$

ARZ056-057-069-220700-
SOUTHEAST ARKANSAS

CITY           SKY/WX    TMP DP  RH WIND       PRES   REMARKS
PINE BLUFF     CLEAR     81  76  84 SW3       29.96S HX  87
6HR MIN TEMP:  80; 6HR MAX TEMP:  90;

STUTTGART      CLEAR     81  66  61 S5        29.97S
6HR MIN TEMP:  81; 6HR MAX TEMP:  93;

MONTICELLO     CLEAR     82  75  79 CALM      29.96F HX  89
6HR MIN TEMP:  82; 6HR MAX TEMP:  94;


$$






USA.gov is the U.S. government's official web portal to all federal, state and local government web resources and services.